This demonstration page uses our WeatherBlox Daily Observations layout. Learn more.

Left ArrowRight Arrow

38.20091, -84.87328

Hourly Observations for July 26, 2022

Temp ( °F °C ) Dew Point ( °F °C ) Humidity (%) Winds ( mph kmh ) Pressure ( in mb ) Visibility ( mi km ) Precip ( " mm )
12:53 am 00:53 Mostly Cloudy 75 23.9 70 21.1 84 84 ESE 3 6 30.02 1017 10 16 0.00 0.00
1:53 am 01:53 Cloudy 76 24.4 70 21.1 82 82 Calm 30.00 1016 10 16 0.00 0.00
2:53 am 02:53 Cloudy 75 23.9 69 20.6 82 82 Calm 29.99 1016 10 16 0.00 0.00
3:53 am 03:53 Mostly Cloudy 75 23.9 67 19.4 76 76 Calm 29.98 1015 10 16 0.00 0.00
4:53 am 04:53 Cloudy 74 23.3 68 20 82 82 Calm 29.98 1015 10 16 0.00 0.00
5:10 am 05:10 Cloudy with Light Rain 74 23.3 69 20.6 85 85 Calm 29.98 1015 9 14 0.00 0.00
5:24 am 05:24 Cloudy 74 23.3 70 21.1 88 88 Calm 29.98 1015 10 16 0.00 0.00
5:53 am 05:53 Cloudy 73 22.8 70 21.1 90 90 Calm 29.97 1015 10 16 0.00 0.00
6:53 am 06:53 Cloudy 73 22.8 71 21.7 94 94 Calm 29.99 1016 9 14 0.00 0.00
7:08 am 07:08 Cloudy 73 22.8 71 21.7 94 94 WSW 3 6 30.00 1016 9 14 0.00 0.00
7:40 am 07:40 Cloudy with Light Rain 73 22.8 71 21.7 94 94 NW 3 6 30.01 1016 3 5 0.03 0.76
7:53 am 07:53 Cloudy with Rain 73 22.8 71 21.7 94 94 Calm 30.02 1017 2 3 0.06 1.52
8:04 am 08:04 Cloudy with Rain 73 22.8 71 21.7 94 94 Calm 30.02 1017 2 2 0.05 1.27
8:17 am 08:17 Cloudy with Heavy Rain 73 22.8 71 21.7 94 94 Calm 30.02 1017 1 2 0.11 2.79
8:29 am 08:29 Cloudy with Rain 73 22.8 71 21.7 94 94 Calm 30.01 1016 3 4 0.15 3.81
8:50 am 08:50 Mostly Cloudy with Rain 73 23 72 22 94 94 ENE 5 7 29.99 1016 3 5 0.22 5.59
8:53 am 08:53 Mostly Cloudy with Rain 73 22.8 72 22.2 96 96 Calm 30.00 1016 3 5 0.22 5.59
9:20 am 09:20 Mostly Cloudy with Light Rain 73 22.8 72 22.2 96 96 S 7 11 30.02 1017 6 10 0.02 0.51
9:30 am 09:30 Mostly Cloudy with Light Rain 73 22.8 72 22.2 96 96 S 7 11 30.02 1017 5 8 0.03 0.76
9:48 am 09:48 Cloudy with Light Rain 73 23 72 22 94 94 S 5 7 30.02 1017 3 5 0.07 1.78
9:53 am 09:53 Cloudy with Heavy Rain 73 22.8 71 21.7 94 94 SW 3 6 30.03 1017 2 3 0.08 2.03
9:58 am 09:58 Cloudy with Light Rain 73 22.8 71 21.7 94 94 Calm 30.02 1017 3 4 0.00 0.00
10:04 am 10:04 Cloudy with Light Rain 73 22.8 71 21.7 94 94 WNW 3 6 30.02 1017 7 11 0.01 0.25
10:23 am 10:23 Cloudy with Light Rain 73 22.8 72 22.2 96 96 SSW 6 9 30.01 1016 8 13 0.01 0.25
10:32 am 10:32 Cloudy with Rain 73 22.8 71 21.7 94 94 VRB 3 6 30.02 1017 3 5 0.04 1.02
10:53 am 10:53 Cloudy with Light Rain 73 22.8 71 21.7 94 94 SW 7 11 30.04 1017 4 6 0.06 1.52
11:03 am 11:03 Cloudy with Heavy Rain 73 22.8 71 21.7 94 94 NNW 8 13 30.04 1017 2 3 0.06 1.52
11:07 am 11:07 Cloudy with Heavy Rain 73 22.8 71 21.7 94 94 NNW 9 15 30.03 1017 1 2 0.12 3.05
11:14 am 11:14 Cloudy with Heavy Rain 72 22.2 71 21.7 97 97 Calm 30.03 1017 1 1 0.25 6.35
11:23 am 11:23 Cloudy with Light Rain 72 22.2 71 21.7 97 97 Calm 30.02 1017 2 2 0.27 6.86
11:25 am 11:25 Cloudy with Light Rain 72 22.2 71 21.7 97 97 Calm 30.02 1017 3 5 0.27 6.86
11:53 am 11:53 Cloudy 74 23.3 72 22.2 94 94 Calm 30.03 1017 10 16 0.27 6.86
12:53 pm 12:53 Cloudy 76 24.4 73 22.8 91 91 S 6 9 30.01 1016 10 16 0.00 0.00
1:05 pm 13:05 Cloudy 76 24.4 73 22.8 91 91 SSW 7 11 30.01 1016 10 16 0.00 0.00
1:53 pm 13:53 Cloudy with Light Rain 77 25 73 22.8 88 88 S 6 9 30.01 1016 10 16 0.01 0.25
2:12 pm 14:12 Cloudy 77 25 73 22.8 88 88 SSW 9 15 29.99 1015 10 16 0.00 0.00
2:17 pm 14:17 Cloudy 77 25 73 22.8 88 88 S 7 11 29.99 1015 10 16 0.00 0.00
2:27 pm 14:27 Cloudy 77 25 74 23.3 90 90 SSW 9 15 29.98 1015 10 16 0.00 0.00
2:53 pm 14:53 Cloudy 77 25 73 22.8 88 88 SSW 6 9 29.98 1015 10 16 0.00 0.00
3:13 pm 15:13 Cloudy 77 25 73 22.8 88 88 SW 6 9 29.97 1015 10 16 0.00 0.00
3:34 pm 15:34 Cloudy 79 26.1 73 22.8 82 82 VRB 7 11 29.97 1015 10 16 0.00 0.00
3:53 pm 15:53 Cloudy 79 26.1 73 22.8 82 82 VRB 5 7 29.99 1016 10 16 0.00 0.00
4:53 pm 16:53 Cloudy 79 26.1 72 22.2 79 79 WSW 3 6 29.98 1015 10 16 0.00 0.00
5:53 pm 17:53 Cloudy 79 26.1 72 22.2 79 79 SW 8 13 29.98 1015 10 16 0.00 0.00
6:53 pm 18:53 Sunny 79 26.1 71 21.7 77 77 WSW 6 9 29.97 1015 10 16 0.00 0.00
7:53 pm 19:53 Sunny 78 25.6 71 21.7 79 79 WSW 5 7 29.96 1015 10 16 0.00 0.00
8:53 pm 20:53 Mostly Cloudy 76 24.4 70 21.1 82 82 SW 3 6 29.96 1014 10 16 0.00 0.00
9:53 pm 21:53 Mostly Clear 74 23.3 71 21.7 91 91 SSW 5 7 29.98 1015 10 16 0.00 0.00
10:53 pm 22:53 Mostly Cloudy 73 22.8 71 21.7 94 94 Calm 29.99 1016 10 16 0.00 0.00
11:26 pm 23:26 Cloudy 75 23.9 71 21.7 88 88 SSW 3 6 29.98 1015 10 16 0.00 0.00
11:53 pm 23:53 Cloudy 75 23.9 71 21.7 88 88 SSW 3 6 30.00 1016 10 16 0.00 0.00

Powered by AerisWeather